Volver al catálogo

DELTA 1 DEB

ActivoLEO
NORAD 10208·DEBRIS·🇺🇸 United States

Lanzado Jul 14, 1977 desde Cape Canaveral Space Force Station

Loading…

Próximos Pases (próximas 24 horas)

TLE

ActualizadoSource: Space-Track

Época: Sep 14, 2026, 05:04 UTC

1 10208U 77065AM  26257.21172602  .00004204  00000-0  47521-3 0  9991
2 10208  28.9321 218.5077 0311773 104.7936 258.7402 14.55039416458654

Sigue DELTA 1 DEB en tiempo real con AllMySat

Download on the App Store